This demonstration page uses our WeatherBlox Daily Observations layout. Learn more.

38.89511, -77.03637

Hourly Observations for September 30, 2019

Temp ( °F °C ) Dew Point ( °F °C ) Humidity (%) Winds ( mph kmh ) Pressure ( in mb ) Visibility ( mi km ) Precip ( " mm )
12:52 am 00:52 Cloudy 74 23.3 63 17.2 69 69 SSE 5 7 30.24 1024 10 16.09344 0 0
1:52 am 01:52 Mostly Cloudy 72 22.2 63 17.2 73 73 SE 3 6 30.24 1024 10 16.09344 0 0
2:52 am 02:52 Cloudy 72 22.2 63 17.2 73 73 E 5 7 30.24 1024 10 16.09344 0 0
3:52 am 03:52 Cloudy 72 22.2 62 16.7 71 71 E 6 9 30.24 1024 10 16.09344 0 0
4:52 am 04:52 Cloudy 72 22.2 64 17.8 76 76 ESE 7 11 30.21 1023 10 16.09344 0 0
5:52 am 05:52 Cloudy 72 22.2 64 17.8 76 76 E 7 11 30.24 1024 10 16.09344 0 0
6:52 am 06:52 Cloudy 71 21.7 65 18.3 81 81 ESE 8 13 30.24 1024 10 16.09344 0 0
7:52 am 07:52 Cloudy 71 21.7 65 18.3 81 81 ESE 7 11 30.24 1024 10 16.09344 0 0
8:52 am 08:52 Cloudy with Light Rain 72 22.2 65 18.3 79 79 SE 8 13 30.27 1025 7 11.265408 0.001 0.001
9:22 am 09:22 Cloudy with Light Rain 71 21.7 65 18.3 81 81 E 6 9 30.27 1025 7 11.265408 0.01 0.254
9:52 am 09:52 Cloudy with Light Rain 70 21.1 66 18.9 87 87 E 8 13 30.27 1025 2.5 4.02336 0.09 2.286
9:56 am 09:56 Cloudy with Light Rain 69 20.6 66 18.9 90 90 E 7 11 30.27 1025 3 4.828032 0.01 0.254
10:14 am 10:14 Cloudy with Light Rain 69 20.6 66 18.9 90 90 E 7 11 30.27 1025 5 8.04672 0.02 0.508
10:52 am 10:52 Cloudy 70 21.1 66 18.9 87 87 E 7 11 30.27 1025 10 16.09344 0.03 0.762
11:52 am 11:52 Cloudy with Light Rain 69 20.6 63 17.2 81 81 E 10 17 30.27 1025 6 9.656064 0.01 0.254
12:52 pm 12:52 Cloudy with Light Rain 69 20.6 64 17.8 84 84 ESE 13 20 30.27 1025 7 11.265408 0.01 0.254
1:52 pm 13:52 Cloudy with Light Rain 69 20.6 64 17.8 84 84 ESE 8 13 30.24 1024 10 16.09344 0.001 0.001
2:52 pm 14:52 Cloudy 71 21.7 64 17.8 79 79 SE 9 15 30.21 1023 10 16.09344 0.001 0.001
3:52 pm 15:52 Cloudy 71 21.7 64 17.8 79 79 SE 10 17 30.18 1022 10 16.09344 0 0
4:52 pm 16:52 Cloudy 72 22.2 64 17.8 76 76 ESE 7 11 30.18 1022 10 16.09344 0 0
5:52 pm 17:52 Cloudy 72 22.2 65 18.3 79 79 SE 7 11 30.18 1022 10 16.09344 0 0
6:52 pm 18:52 Cloudy 72 22.2 65 18.3 79 79 SSE 6 9 30.18 1022 10 16.09344 0 0
7:52 pm 19:52 Cloudy 72 22.2 65 18.3 79 79 SE 6 9 30.18 1022 10 16.09344 0 0
8:52 pm 20:52 Cloudy 72 22.2 63 17.2 73 73 SSE 8 13 30.18 1022 10 16.09344 0 0
9:52 pm 21:52 Cloudy 71 21.7 63 17.2 76 76 SSE 6 9 30.18 1022 10 16.09344 0 0
10:52 pm 22:52 Cloudy with Light Rain 71 21.7 62 16.7 73 73 SSE 7 11 30.18 1022 10 16.09344 0.001 0.001
11:52 pm 23:52 Cloudy 70 21.1 62 16.7 76 76 SSE 7 11 30.18 1022 10 16.09344 0.001 0.001

Powered by AerisWeather